Regional Weather Roundup
Issued by NWS State College, PA

Home | Current Version | Previous Version | Text Only | Print | Product List | Glossary On
Versions: 1 2 3 4 5 6 7 8 9 10 11 12 13 14 15 16 17 18 19 20 21 22 23 24 25 26 27 28 29 30 31 32 33 34 35 36 37 38 39 40 41 42 43 44 45 46 47 48 49 50
000
ASUS41 KCTP 240110
RWRCTP

REGIONAL WEATHER ROUNDUP
NATIONAL WEATHER SERVICE STATE COLLEGE PA
800 PM EST MON JAN 23 2017

Note: "fair" indicates few or no clouds below 12,000 feet with no
significant weather and/or obstructions to visibility.

* = STATION THAT DOES NOT REPORT PRECIPITATION /E.G. RAIN...SNOW...ETC/
    THUNDER OR FOG.

PAZ002>004-007>009-013>016-020>023-029>032-240200-
WESTERN PENNSYLVANIA

CITY           SKY/WX    TMP DP  RH WIND       PRES   REMARKS
ERIE           CLOUDY    39  36  89 NE21      29.65F
MEADVILLE      LGT RAIN  41  37  86 E6        29.61S
FRANKLIN*        N/A     37  34  87 NE9       29.61F
NEW CASTLE     LGT RAIN  39  37  92 E6        29.62S
BEAVER COUNTY  DRIZZLE   36  36 100 CALM      29.55F
BUTLER*        CLOUDY    34  30  86 NE6       29.62F
PITTSBURGH INT FLURRIES  34  34 100 NE8       29.59S
PITTSBURGH     CLOUDY    35  32  88 N6        29.58R
INDIANA*       CLOUDY    34  34 100 E7        29.60F
LATROBE        CLOUDY    32  32 100 NE7       29.58S FOG
WASHINGTON CO* CLOUDY    34  34 100 NE7       29.59R
$$

PAZ004>006-010>012-017>019-024>028-033>037-041-042-045-046-049>053-240200-
CENTRAL PENNSYLVANIA

CITY           SKY/WX    TMP DP  RH WIND       PRES   REMARKS
BRADFORD       LGT RAIN  36  35  96 E7        29.61F
DUBOIS         LGT SNOW  34  31  88 NE14      29.58F FOG
CLEARFIELD     LGT RAIN  34  33  96 NE8       29.60S
JOHNSTOWN      LGT SNOW  31  31 100 NE7       29.52S FOG
ALTOONA        MIX PCPN  34  33  96 NE10      29.58S
STATE COLLEGE  LGT SNOW  32  32 100 NE8       29.61F
WILLIAMSPORT   RAIN      35  32  88 W6        29.65F FOG
SELINSGROVE    LGT RAIN  35  33  92 N12       29.62F FOG
FT INDIANTOWN  CLOUDY    36  36 100 NE9G17    29.58F
CAPITAL CITY   CLOUDY    37  33  85 NE10      29.60S
HARRISBURG     CLOUDY    37  34  89 NE9       29.59S
YORK           CLOUDY    35  35 100 N10       29.56F
$$

PAZ038>040-043-044-047-048-054-055-060>062-067>071-240200-
EASTERN PENNSYLVANIA

CITY           SKY/WX    TMP DP  RH WIND       PRES   REMARKS
SCRANTON       FRZ RAIN  34  32  92 NE13      29.60F FOG
MOUNT POCONO   FRZ RAIN  31  28  89 E20G37    29.56F
ALLENTOWN      LGT RAIN  36  31  82 NE16      29.59F
QUAKERTOWN*    CLOUDY    36  32  87 NE10G21   29.56F
READING        CLOUDY    36  35  96 NE13      29.56F
LANCASTER      CLOUDY    37  35  92 NE14      29.56F
COATESVILLE    CLOUDY    36  34  93 NE9G28    29.52F
POTTSTOWN      CLOUDY    35  35 100 NE10G17   29.57F
BLUE BELL      CLOUDY    36  34  93 NE13G23   29.53F
DOYLESTOWN       N/A    N/A N/A N/A MISG      29.53F
WILLOW GROVE   NOT AVBL
NORTH PHILA    CLOUDY    39  32  76 NE26G33   29.55F
PHILADELPHIA   CLOUDY    39  34  82 NE24G31   29.52F
$$



USA.gov is the U.S. government's official web portal to all federal, state and local government web resources and services.